CST,Max TemperatureF,Mean TemperatureF,Min TemperatureF,Max Dew PointF,MeanDew PointF,Min DewpointF,Max Humidity, Mean Humidity, Min Humidity, Max Sea Level PressureIn, Mean Sea Level PressureIn, Min Sea Level PressureIn, Max VisibilityMiles, Mean VisibilityMiles, Min VisibilityMiles, Max Wind SpeedMPH, Mean Wind SpeedMPH, Max Gust SpeedMPH,PrecipitationIn, CloudCover, Events, WindDirDegrees
2012-1-1,53,44,35,19,14,10,42,31,22,,,,10,10,10,26,16,30,0.00,0,,38
2012-1-2,55,39,23,19,14,9,59,40,22,,,,10,10,10,14,6,,0.00,0,,40
2012-1-3,66,44,21,32,18,7,58,42,25,,,,10,10,10,13,6,20,0.00,0,,153
2012-1-4,57,44,30,25,20,16,70,39,23,,,,10,10,4,34,11,40,0.00,0,,358
2012-1-5,60,42,23,19,14,7,69,42,15,30.28,30.20,30.15,10,10,10,13,6,,0.00,0,,299
2012-1-6,64,40,17,18,10,3,63,34,11,30.14,30.07,30.00,10,10,10,28,7,31,0.00,0,,297
2012-1-7,62,45,28,27,18,7,75,37,19,30.17,30.09,30.03,10,10,10,13,7,,0.00,0,,305
2012-1-8,62,50,37,23,17,12,39,30,16,30.05,29.99,29.92,10,10,10,21,6,26,0.00,2,,23
2012-1-9,41,37,33,36,30,25,93,80,65,30.21,30.14,30.07,10,10,5,24,14,28,0.00,8,,15
2012-1-10,50,39,28,30,27,23,100,69,40,30.19,30.13,30.05,10,10,10,24,12,28,0.00,0,,277
2012-1-11,62,42,23,27,21,18,80,49,18,30.04,29.99,29.92,10,10,10,23,7,28,0.00,0,,267
2012-1-12,39,32,24,28,21,16,93,69,39,30.25,30.16,30.05,10,10,10,28,20,34,0.00,3,,41
2012-1-13,53,40,28,21,15,9,64,39,21,30.25,30.18,30.12,10,10,10,14,4,16,0.00,3,,277
2012-1-14,60,36,12,18,7,1,73,40,11,30.38,30.32,30.28,10,10,10,12,5,,0.00,0,,182
2012-1-15,68,47,26,32,16,0,49,31,20,30.30,30.23,30.16,10,10,10,23,7,29,0.00,0,,285
2012-1-16,69,51,33,32,26,18,60,41,21,30.18,30.10,30.04,10,10,10,28,7,33,0.00,1,,193
2012-1-17,64,48,33,34,26,18,70,42,20,30.28,30.20,30.12,10,10,10,14,9,18,0.00,0,,280
2012-1-18,66,45,24,28,20,12,69,42,16,30.34,30.25,30.16,10,10,10,17,8,23,0.00,0,,270
2012-1-19,71,50,28,19,15,9,51,29,13,30.17,30.10,30.03,10,10,9,18,8,22,0.00,0,,239
2012-1-20,71,50,28,16,12,5,40,23,11,30.07,30.02,29.98,10,10,9,31,8,37,0.00,0,,266
2012-1-21,69,50,30,14,6,0,30,18,10,30.15,30.06,29.94,10,10,10,21,9,25,0.00,0,,238
2012-1-22,64,52,39,16,9,0,26,17,11,30.08,29.96,29.86,10,9,2,43,15,66,0.00,0,,259
2012-1-23,68,46,24,12,8,0,36,23,11,30.16,30.09,29.99,10,10,10,15,6,30,0.00,0,,252
2012-1-24,62,45,28,27,11,0,38,26,14,29.99,29.89,29.81,10,10,10,25,8,31,0.00,1,,325
2012-1-25,44,38,32,36,29,19,93,75,39,30.12,30.05,29.97,10,9,1,23,11,26,0.03,5,,342
2012-1-26,59,41,23,34,25,21,100,60,23,30.23,30.16,30.10,10,10,10,18,6,37,0.00,0,,15
2012-1-27,69,46,24,30,21,16,86,49,14,30.13,30.08,30.04,10,10,10,17,6,25,0.00,0,,354
2012-1-28,48,40,33,28,23,19,70,50,34,30.42,30.32,30.21,10,10,10,28,21,32,0.00,0,,35
2012-1-29,60,40,21,32,23,14,80,54,29,30.41,30.34,30.25,10,10,10,10,6,,0.00,0,,148
2012-1-30,66,45,24,36,27,18,81,56,28,30.28,30.17,30.08,10,10,10,16,6,21,0.00,0,,210
2012-1-31,66,47,28,41,29,18,93,57,24,30.19,30.14,30.09,10,10,10,14,6,21,0.00,0,,2